Weather reports worldwide

Advertisment
Carterhouse, United Kingdom (99129): temperature & dewpoint: 11.08.2017 08:00:00 - 17.08.2017 08:00:00 (BST)Carterhouse, United Kingdom (99129): temperature -20cm & temperature -100cm: 11.08.2017 08:00:00 - 17.08.2017 08:00:00 (BST)Carterhouse, United Kingdom (99129): wind speed: 11.08.2017 08:00:00 - 17.08.2017 08:00:00 (BST)Carterhouse, United Kingdom (99129): wind direction: 11.08.2017 08:00:00 - 17.08.2017 08:00:00 (BST)Carterhouse, United Kingdom (99129): visibility: 11.08.2017 08:00:00 - 17.08.2017 08:00:00 (BST)Carterhouse, United Kingdom (99129): precipitation: 11.08.2017 08:00:00 - 17.08.2017 08:00:00 (BST)
Date & Time tt [°C] td [°C] tt -20cm [°C] tt -100cm [°C] ff [km/h] ff [kn] dd vv [km] rr [mm]
17.08.2017 08:00:00 12,7 11,7 - - - - - - 0,0
17.08.2017 07:00:00 12,0 11,6 - - - - - - 0,0
17.08.2017 06:00:00 12,4 12,0 - - - - - - 0,0
17.08.2017 05:00:00 13,3 12,9 - - - - - - 0,0
17.08.2017 04:00:00 13,4 13,1 - - - - - - 0,6
17.08.2017 03:00:00 13,6 13,1 - - - - - - 0,4
17.08.2017 02:00:00 13,7 13,3 - - - - - - 0,2
17.08.2017 01:00:00 13,6 13,0 - - - - - - 0,0
17.08.2017 00:00:00 13,7 12,9 - - - - - - 0,0
16.08.2017 23:00:00 13,7 12,9 - - - - - - 0,2
16.08.2017 22:00:00 13,7 12,7 - - - - - - 1,0
16.08.2017 21:00:00 13,5 12,5 - - - - - - 1,4
16.08.2017 20:00:00 14,8 11,3 - - - - - - 0,0
16.08.2017 19:00:00 15,6 11,2 - - - - - - 0,0
16.08.2017 18:00:00 16,2 11,6 - - - - - - 0,0
16.08.2017 17:00:00 15,7 11,0 - - - - - - 0,0
16.08.2017 16:00:00 16,0 9,6 - - - - - - 0,0
16.08.2017 15:00:00 16,5 9,3 - - - - - - 0,0
16.08.2017 14:00:00 16,6 10,0 - - - - - - 0,0
16.08.2017 13:00:00 15,9 10,0 - - - - - - 0,0
16.08.2017 12:00:00 16,9 9,9 - - - - - - 0,0
16.08.2017 11:00:00 15,4 9,7 - - - - - - 0,0
16.08.2017 10:00:00 14,9 10,0 15,0 14,0 2 1 N 0,5 0,0
16.08.2017 09:00:00 13,9 10,9 - - - - - - 0,0
16.08.2017 08:00:00 12,4 10,7 - - - - - - 0,0
16.08.2017 07:00:00 12,0 10,7 - - - - - - 0,0
16.08.2017 06:00:00 11,9 10,2 - - - - - - 0,0
16.08.2017 05:00:00 11,4 10,3 - - - - - - 0,0
16.08.2017 04:00:00 11,2 10,6 - - - - - - 0,0
16.08.2017 03:00:00 11,4 11,0 - - - - - - 0,0
16.08.2017 02:00:00 11,2 10,8 - - - - - - 0,0
16.08.2017 01:00:00 11,2 10,9 - - - - - - 0,0
16.08.2017 00:00:00 11,5 11,0 - - - - - - 0,0
15.08.2017 23:00:00 11,0 10,4 - - - - - - 0,0
15.08.2017 22:00:00 11,5 10,5 - - - - - - 0,0
15.08.2017 21:00:00 11,5 10,0 - - - - - - 0,0
15.08.2017 20:00:00 12,4 10,0 - - - - - - 0,0
15.08.2017 19:00:00 14,1 11,6 - - - - - - 0,0
15.08.2017 18:00:00 14,9 11,5 - - - - - - 0,0
15.08.2017 17:00:00 14,9 11,7 - - - - - - 0,0
15.08.2017 16:00:00 13,9 11,2 - - - - - - 1,6
15.08.2017 15:00:00 16,1 11,9 - - - - - - 0,0
15.08.2017 14:00:00 14,4 13,2 - - - - - - 0,0
15.08.2017 13:00:00 14,6 10,4 - - - - - - 0,0
15.08.2017 12:00:00 16,0 11,9 - - - - - - 0,0
15.08.2017 11:00:00 15,5 11,3 - - - - - - 0,0
15.08.2017 10:00:00 15,4 13,2 14,9 14,0 - - - 10 0,0
15.08.2017 09:00:00 13,1 12,2 - - - - - - 0,0
15.08.2017 08:00:00 12,4 11,9 - - - - - - 0,0
15.08.2017 07:00:00 11,6 11,3 - - - - - - 0,0
15.08.2017 06:00:00 11,7 11,5 - - - - - - 0,0
15.08.2017 05:00:00 11,6 11,4 - - - - - - 0,2
15.08.2017 04:00:00 11,9 11,8 - - - - - - 1,6
15.08.2017 03:00:00 11,8 11,3 - - - - - - 0,6
15.08.2017 02:00:00 12,4 12,1 - - - - - - 3,0
15.08.2017 01:00:00 13,1 12,3 - - - - - - 2,6
15.08.2017 00:00:00 13,6 12,9 - - - - - - 2,2
14.08.2017 23:00:00 13,8 12,9 - - - - - - 1,4
14.08.2017 22:00:00 14,2 12,9 - - - - - 10 1,0
14.08.2017 21:00:00 14,4 13,0 - - - - - - 0,0
14.08.2017 20:00:00 14,9 13,1 - - - - - - 0,0
14.08.2017 19:00:00 15,0 13,2 - - - - - - 0,0
14.08.2017 18:00:00 15,1 13,8 - - - - - - 0,0
14.08.2017 17:00:00 14,8 13,9 - - - - - - 0,4
14.08.2017 16:00:00 15,5 13,1 - - - - - - 0,0
14.08.2017 15:00:00 15,4 12,2 - - - - - - 0,0
14.08.2017 14:00:00 15,9 12,6 - - - - - - 0,0
14.08.2017 13:00:00 16,6 12,3 - - - - - - 0,0
14.08.2017 12:00:00 14,0 11,2 - - - - - - 0,0
14.08.2017 11:00:00 13,0 10,5 - - - - - - 0,0
14.08.2017 10:00:00 12,1 10,6 14,7 14,0 11 6 N - 0,2
14.08.2017 09:00:00 11,7 10,7 - - - - - - 1,0
14.08.2017 08:00:00 11,2 10,1 - - - - - - 0,2
14.08.2017 07:00:00 11,3 8,9 - - - - - - 0,0
14.08.2017 06:00:00 11,8 8,1 - - - - - - 0,0
14.08.2017 05:00:00 11,9 7,7 - - - - - - 0,0
14.08.2017 04:00:00 12,4 6,9 - - - - - - 0,0
14.08.2017 03:00:00 11,9 6,6 - - - - - - 0,0
14.08.2017 02:00:00 11,7 6,5 - - - - - - 0,0
14.08.2017 01:00:00 11,4 6,0 - - - - - - 0,0
14.08.2017 00:00:00 11,4 7,0 - - - - - - 0,0
13.08.2017 23:00:00 10,5 6,9 - - - - - - 0,0
13.08.2017 22:00:00 10,6 7,0 - - - - - - 0,0
13.08.2017 21:00:00 9,4 5,9 - - - - - - 0,0
13.08.2017 20:00:00 13,0 6,7 - - - - - - 0,0
13.08.2017 19:00:00 14,7 7,6 - - - - - - 0,0
13.08.2017 18:00:00 14,4 6,3 - - - - - - 0,0
13.08.2017 17:00:00 14,8 8,8 - - - - - - 0,0
13.08.2017 16:00:00 14,0 8,5 - - - - - - 0,0
13.08.2017 15:00:00 13,2 8,5 - - - - - - 0,0
13.08.2017 14:00:00 13,3 8,0 - - - - - - 0,0
13.08.2017 13:00:00 13,6 8,3 - - - - - - 0,0
13.08.2017 12:00:00 13,3 7,9 - - - - - - 0,0
13.08.2017 11:00:00 14,4 9,3 - - - - - - 0,0
13.08.2017 10:00:00 13,2 8,7 14,7 14,0 - - - - 0,0
13.08.2017 09:00:00 11,8 8,3 - - - - - - 0,0
13.08.2017 08:00:00 9,3 7,3 - - - - - - 0,0
13.08.2017 07:00:00 7,3 6,4 - - - - - - 0,0
13.08.2017 06:00:00 6,2 5,4 - - - - - - 0,0
13.08.2017 05:00:00 6,5 5,3 - - - - - - 0,0
13.08.2017 04:00:00 7,4 6,0 - - - - - - 0,0
13.08.2017 03:00:00 7,8 6,3 - - - - - - 0,0
13.08.2017 02:00:00 9,0 7,4 - - - - - - 0,0
13.08.2017 01:00:00 9,3 8,1 - - - - - - 0,2
13.08.2017 00:00:00 9,4 8,0 - - - - - - 0,0
12.08.2017 23:00:00 10,2 9,0 - - - - - - 0,0
12.08.2017 22:00:00 10,0 8,5 - - - - - - 0,0
12.08.2017 21:00:00 11,4 9,4 - - - - - - 0,6
12.08.2017 20:00:00 12,7 9,4 - - - - - - 0,0
12.08.2017 19:00:00 14,2 10,7 - - - - - - 0,0
12.08.2017 18:00:00 13,7 9,8 - - - - - - 0,0
12.08.2017 17:00:00 14,1 11,2 - - - - - - 0,0
12.08.2017 16:00:00 13,5 10,4 - - - - - - 0,2
12.08.2017 15:00:00 12,2 11,2 - - - - - - 0,0
12.08.2017 14:00:00 13,1 10,2 - - - - - - 0,0
12.08.2017 13:00:00 12,7 11,1 - - - - - - 0,2
12.08.2017 12:00:00 10,9 10,8 - - - - - - 1,0
12.08.2017 11:00:00 10,9 10,7 - - - - - - 2,8
12.08.2017 10:00:00 12,2 11,7 14,7 14,0 15 8 N 10 0,2
12.08.2017 09:00:00 11,7 11,3 - - - - - - 0,0
12.08.2017 08:00:00 11,4 10,7 - - - - - - 0,0
12.08.2017 07:00:00 11,5 10,6 - - - - - - 0,0
12.08.2017 06:00:00 11,3 10,4 - - - - - - 0,0
12.08.2017 05:00:00 11,1 10,3 - - - - - - 0,0
12.08.2017 04:00:00 11,1 10,1 - - - - - - 0,0
12.08.2017 03:00:00 10,9 9,7 - - - - - - 0,0
12.08.2017 02:00:00 11,4 9,9 - - - - - - 0,0
12.08.2017 01:00:00 11,5 10,7 - - - - - - 0,0
12.08.2017 00:00:00 12,1 11,1 - - - - - - 0,0
11.08.2017 23:00:00 12,4 11,7 - - - - - - 0,0
11.08.2017 22:00:00 13,1 12,1 - - - - - - 0,2
11.08.2017 21:00:00 14,5 14,0 - - - - - - 0,0
11.08.2017 20:00:00 15,2 14,2 - - - - - - 0,2
11.08.2017 19:00:00 15,0 14,8 - - - - - - 0,0
11.08.2017 18:00:00 14,4 14,3 - - - - - - 0,2
11.08.2017 17:00:00 14,1 14,1 - - - - - - 0,0
11.08.2017 16:00:00 14,5 14,2 - - - - - - 0,0
11.08.2017 15:00:00 14,3 13,7 - - - - - - 0,2
11.08.2017 14:00:00 13,5 13,1 - - - - - - 0,0
11.08.2017 13:00:00 13,5 13,0 - - - - - - 0,0
11.08.2017 12:00:00 12,8 12,5 - - - - - - 0,0
11.08.2017 11:00:00 12,4 12,0 - - - - - - 0,0
11.08.2017 10:00:00 12,0 11,6 15,0 14,0 15 8 N 50 0,2
11.08.2017 09:00:00 11,9 11,0 - - - - - - 0,0
11.08.2017 08:00:00 11,6 10,9 - - - - - - 0,0

tt = temperature
td = dewpoint
tt -20cm = temperature -20cm
tt -100cm = temperature -100cm
ff = wind speed
dd = wind direction
vv = visibility
rr = precipitation

Next stations